Home   Weather   Kitchener   Past weeks

Flag for Canada Past Weather in Kitchener, Ontario, Canada — Yesterday and Last 2 Weeks

Now
43 °F

Light rain. Overcast.


Feels Like: 35 °F
Forecast: 38 / 44 °F
Wind: 17 mph from East

Location: Waterloo Well

Current Time: Apr 30, 2017 at 5:04:30 am

Latest Report: Apr 30, 2017 at 4:00 am


Visibility: 9 mi

Pressure: 30.18 "Hg

Humidity: 66%

Dew Point: 32 °F

Location of KitchenerLocation

Past Weather in Kitchener — Graph

°F

Kitchener Temperature Yesterday

Maximum temperature yesterday: 54 °F (at 12:00 am)
Minimum temperature yesterday: 45 °F (at 6:00 am)
Average temperature yesterday: 49 °F

High & Low Weather Summary for the Past Weeks

 TemperatureHumidityPressure
High79 °F (Apr 27, 2:00 pm)100% (Apr 20, 3:53 pm)30.43 "Hg (Apr 20, 3:53 pm)
Low28 °F (Apr 18, 6:00 am)26% (Apr 23, 6:00 pm)29.49 "Hg (Apr 27, 4:00 pm)
Average49 °F77%29.97 "Hg
* Reported Apr 15 4:00 am — Apr 30 4:00 am, Kitchener, Weather by CustomWeather, © 2017

Note: Actual official high and low records may vary slightly from our data, if they occured in-between our weather recording intervals... More about our weather records

Advertising

Kitchener Weather History for the Previous 24 Hours

Scroll right to see more
 ConditionsComfort  
Time TempWeatherWind HumidityBarometerVisibility
4:00 am
Sun, Apr 30
43 °FLight rain. Overcast.17 mph66%30.18 "Hg9 mi
3:00 am45 °FMostly cloudy.13 mph57%30.19 "Hg9 mi
2:00 am45 °FOvercast.13 mph57%30.20 "Hg9 mi
1:00 am45 °FPassing clouds.7 mph57%30.25 "Hg9 mi
12:00 am45 °FMostly cloudy.3 mph57%30.26 "Hg9 mi
11:00 pm
Sat, Apr 29
45 °FPassing clouds.8 mph57%30.27 "Hg9 mi
10:00 pm45 °FClear.8 mph61%30.27 "Hg9 mi
9:00 pm46 °FMostly cloudy.7 mph71%30.26 "Hg9 mi
8:00 pm48 °FScattered clouds.5 mph66%30.22 "Hg9 mi
7:00 pm50 °FBroken clouds.6 mph62%30.20 "Hg9 mi
6:00 pm50 °FPartly sunny.13 mph58%30.19 "Hg9 mi
5:00 pm52 °FPartly sunny.10 mph58%30.18 "Hg9 mi
4:00 pm52 °FOvercast.13 mph58%30.19 "Hg9 mi
3:00 pm52 °FOvercast.13 mph54%30.19 "Hg9 mi
2:00 pm52 °FOvercast.15 mph54%30.18 "Hg9 mi
1:00 pm50 °FOvercast.12 mph54%30.14 "Hg9 mi
12:00 pm48 °FOvercast.16 mph62%30.14 "Hg9 mi
11:00 am46 °FOvercast.13 mph66%30.14 "Hg9 mi
10:00 am46 °FOvercast.12 mph66%30.13 "Hg9 mi
9:00 am45 °FOvercast.13 mph71%30.11 "Hg9 mi
8:00 am45 °FOvercast.8 mph76%30.08 "Hg9 mi
7:00 am45 °FPartly sunny.13 mph76%30.05 "Hg9 mi
6:00 am45 °FPassing clouds.13 mph81%30.01 "Hg9 mi
5:00 am48 °FClear.13 mph87%29.98 "Hg9 mi
Weather by CustomWeather, © 2017

See weather overviewHow to use our weather pages